sat.trackr.live / text

‹ back to catalog

DIRECTV 9S

NORAD 29494 · 2006-043A

PAYLOAD ACTIVE UNKNOWN

§ Identity

Operator
Country
US
Launch date
2006-10-13
Launch site
FRGUI
Launch vehicle
Mass (kg)
RCS (m²)
271.13

Purposes: comms

External: N2YO · Heavens-Above · Gunter

§ Orbital elements

Epoch: 2026-05-25T05:30:18.724032Z

Period
1,436.10 min
Inclination
2.3639°
Eccentricity
0.0004843
Mean motion
1.00271542 rev/d
Perigee alt
35,766.2 km
Apogee alt
35,807.1 km
Semi-major
42,164.8 km
B*
0.0000e+0
RAAN
81.1674°
Arg perigee
354.5962°
Mean anomaly
148.4373°
Rev number
5,115

§ Raw data

DIRECTV 9S1 29494U 06043A   26145.22938338 -.00000115  00000+0  00000+0 0  99932 29494   2.3639  81.1674 0004843 354.5962 148.4373  1.00271542 51157

JSON: /api/v1/satellites/29494 · /tle

For live sub-satellite position, see the globe view (requires WebGL).

§ Visibility from observer

Set your observer location to see the next 7 days of passes ≥ 10°. The values pass through the URL so the page stays shareable.

No JS? Fill the form by hand. The geolocation button needs JavaScript.